Time,TemperatureF,DewpointF,PressureIn,WindDirection,WindDirectionDegrees,WindSpeedMPH,WindSpeedGustMPH,Humidity,HourlyPrecipIn,Conditions,Clouds,dailyrainin,SolarRadiationWatts/m^2,SoftwareType,DateUTC
2013-04-07 00:00:00,56.3,40.8,29.74,South,178,6.0,9.0,56,0.00,,---,0.00,0.00,VWS V14.01,2013-04-07 05:00:00,
2013-04-07 00:02:00,56.2,40.7,29.74,South,181,3.0,7.0,56,0.00,,---,0.00,0.00,VWS V14.01,2013-04-07 05:02:00,
2013-04-07 00:07:00,55.9,40.9,29.74,South,182,2.0,7.0,57,0.00,,---,0.00,0.00,VWS V14.01,2013-04-07 05:07:00,
2013-04-07 00:12:00,55.6,41.1,29.74,South,182,3.0,7.0,58,0.00,,---,0.00,0.00,VWS V14.01,2013-04-07 05:12:00,
2013-04-07 00:17:00,55.4,40.9,29.74,South,182,3.0,7.0,58,0.00,,---,0.00,0.00,VWS V14.01,2013-04-07 05:17:00,
2013-04-07 00:22:00,55.1,41.0,29.74,South,182,3.0,7.0,59,0.00,,---,0.00,0.00,VWS V14.01,2013-04-07 05:22:00,
2013-04-07 00:27:00,55.0,41.0,29.74,South,188,4.0,7.0,59,0.00,,---,0.00,0.00,VWS V14.01,2013-04-07 05:27:00,
2013-04-07 00:30:00,55.0,41.0,29.74,SSW,209,5.0,7.0,59,0.00,,---,0.00,0.00,VWS V14.01,2013-04-07 05:30:00,
2013-04-07 00:32:00,54.8,40.8,29.74,South,188,5.0,7.0,59,0.00,,---,0.00,0.00,VWS V14.01,2013-04-07 05:32:00,
2013-04-07 00:37:00,54.7,41.1,29.74,South,189,3.0,7.0,60,0.00,,---,0.00,0.00,VWS V14.01,2013-04-07 05:37:00,
2013-04-07 00:42:00,54.7,41.1,29.74,South,188,2.0,7.0,60,0.00,,---,0.00,0.00,VWS V14.01,2013-04-07 05:42:00,
2013-04-07 00:47:00,54.5,40.9,29.74,South,189,2.0,7.0,60,0.00,,---,0.00,0.00,VWS V14.01,2013-04-07 05:47:00,
2013-04-07 00:52:00,54.4,40.8,29.74,South,184,4.0,7.0,60,0.00,,---,0.00,0.00,VWS V14.01,2013-04-07 05:52:00,
2013-04-07 00:57:00,54.2,41.1,29.74,South,182,3.0,7.0,61,0.00,,---,0.00,0.00,VWS V14.01,2013-04-07 05:57:00,
2013-04-07 01:00:00,54.1,41.0,29.75,South,186,6.0,7.0,61,0.00,,---,0.00,0.00,VWS V14.01,2013-04-07 06:00:00,
2013-04-07 01:02:00,54.1,41.0,29.75,South,190,4.0,6.0,61,0.00,,---,0.00,0.00,VWS V14.01,2013-04-07 06:02:00,
2013-04-07 01:07:00,53.9,40.8,29.75,South,187,2.0,6.0,61,0.00,,---,0.00,0.00,VWS V14.01,2013-04-07 06:07:00,
2013-04-07 01:12:00,53.6,40.9,29.75,South,187,2.0,6.0,62,0.00,,---,0.00,0.00,VWS V14.01,2013-04-07 06:12:00,
2013-04-07 01:17:00,53.3,40.6,29.74,South,187,2.0,6.0,62,0.00,,---,0.00,0.00,VWS V14.01,2013-04-07 06:17:00,
2013-04-07 01:22:00,53.1,40.8,29.74,South,187,2.0,6.0,63,0.00,,---,0.00,0.00,VWS V14.01,2013-04-07 06:22:00,
2013-04-07 01:27:00,52.8,40.6,29.74,South,187,3.0,6.0,63,0.00,,---,0.00,0.00,VWS V14.01,2013-04-07 06:27:00,
2013-04-07 01:30:00,52.6,40.8,29.74,South,187,3.0,6.0,64,0.00,,---,0.00,0.00,VWS V14.01,2013-04-07 06:30:00,
2013-04-07 01:33:00,52.5,40.7,29.74,South,187,3.0,3.0,64,0.00,,---,0.00,0.00,VWS V14.01,2013-04-07 06:33:00,
2013-04-07 01:38:00,52.2,40.8,29.74,South,187,2.0,3.0,65,0.00,,---,0.00,0.00,VWS V14.01,2013-04-07 06:38:00,
2013-04-07 01:43:00,52.0,40.6,29.74,South,187,3.0,5.0,65,0.00,,---,0.00,0.00,VWS V14.01,2013-04-07 06:43:00,
2013-04-07 01:48:00,52.0,40.6,29.74,South,187,5.0,5.0,65,0.00,,---,0.00,0.00,VWS V14.01,2013-04-07 06:48:00,
2013-04-07 01:53:00,52.2,40.4,29.74,South,188,3.0,6.0,64,0.00,,---,0.00,0.00,VWS V14.01,2013-04-07 06:53:00,
2013-04-07 01:58:00,52.2,40.4,29.74,South,180,4.0,6.0,64,0.00,,---,0.00,0.00,VWS V14.01,2013-04-07 06:58:00,
2013-04-07 02:00:00,52.2,40.4,29.74,South,180,4.0,6.0,64,0.00,,---,0.00,0.00,VWS V14.01,2013-04-07 07:00:00,
2013-04-07 02:03:00,52.2,40.4,29.74,South,180,4.0,5.0,64,0.00,,---,0.00,0.00,VWS V14.01,2013-04-07 07:03:00,
2013-04-07 02:08:00,52.0,40.6,29.74,South,182,6.0,7.0,65,0.00,,---,0.00,0.00,VWS V14.01,2013-04-07 07:08:00,
2013-04-07 02:13:00,52.2,40.8,29.74,SSW,202,4.0,8.0,65,0.00,,---,0.00,0.00,VWS V14.01,2013-04-07 07:13:00,
2013-04-07 02:18:00,52.2,40.8,29.75,South,188,5.0,9.0,65,0.00,,---,0.00,0.00,VWS V14.01,2013-04-07 07:18:00,
2013-04-07 02:23:00,52.2,40.8,29.75,South,176,6.0,9.0,65,0.00,,---,0.00,0.00,VWS V14.01,2013-04-07 07:23:00,
2013-04-07 02:28:00,52.3,40.9,29.74,SSW,211,4.0,9.0,65,0.00,,---,0.00,0.00,VWS V14.01,2013-04-07 07:28:00,
2013-04-07 02:30:00,52.3,40.9,29.74,South,187,6.0,9.0,65,0.00,,---,0.00,0.00,VWS V14.01,2013-04-07 07:30:00,
2013-04-07 02:33:00,52.3,40.9,29.74,South,169,6.0,8.0,65,0.00,,---,0.00,0.00,VWS V14.01,2013-04-07 07:33:00,
2013-04-07 02:38:00,52.3,40.9,29.74,South,185,4.0,8.0,65,0.00,,---,0.00,0.00,VWS V14.01,2013-04-07 07:38:00,
2013-04-07 02:43:00,52.3,41.3,29.74,South,176,4.0,8.0,66,0.00,,---,0.00,0.00,VWS V14.01,2013-04-07 07:43:00,
2013-04-07 02:48:00,52.3,41.3,29.74,South,174,6.0,8.0,66,0.00,,---,0.00,0.00,VWS V14.01,2013-04-07 07:48:00,
2013-04-07 02:53:00,52.3,41.3,29.74,South,178,6.0,8.0,66,0.00,,---,0.00,0.00,VWS V14.01,2013-04-07 07:53:00,
2013-04-07 02:58:00,52.3,41.3,29.74,South,184,6.0,8.0,66,0.00,,---,0.00,0.00,VWS V14.01,2013-04-07 07:58:00,
2013-04-07 03:00:00,52.3,41.3,29.74,South,180,4.0,8.0,66,0.00,,---,0.00,0.00,VWS V14.01,2013-04-07 08:00:00,
2013-04-07 03:03:00,52.3,41.3,29.74,South,187,5.0,7.0,66,0.00,,---,0.00,0.00,VWS V14.01,2013-04-07 08:03:00,
2013-04-07 03:08:00,52.3,41.3,29.74,SSW,199,3.0,7.0,66,0.00,,---,0.00,0.00,VWS V14.01,2013-04-07 08:08:00,
2013-04-07 03:14:00,52.3,41.7,29.74,South,188,6.0,7.0,67,0.00,,---,0.00,0.00,VWS V14.01,2013-04-07 08:14:00,
2013-04-07 03:19:00,52.3,41.3,29.73,South,190,4.0,7.0,66,0.00,,---,0.00,0.00,VWS V14.01,2013-04-07 08:19:00,
2013-04-07 03:24:00,52.2,41.2,29.73,South,186,3.0,7.0,66,0.00,,---,0.00,0.00,VWS V14.01,2013-04-07 08:24:00,
2013-04-07 03:29:00,52.0,41.4,29.73,South,185,2.0,7.0,67,0.00,,---,0.00,0.00,VWS V14.01,2013-04-07 08:29:00,
2013-04-07 03:30:00,52.0,41.4,29.73,South,186,3.0,7.0,67,0.00,,---,0.00,0.00,VWS V14.01,2013-04-07 08:30:00,
2013-04-07 03:34:00,51.7,41.1,29.73,South,185,3.0,5.0,67,0.00,,---,0.00,0.00,VWS V14.01,2013-04-07 08:34:00,
2013-04-07 03:39:00,51.3,41.1,29.73,South,184,4.0,5.0,68,0.00,,---,0.00,0.00,VWS V14.01,2013-04-07 08:39:00,
2013-04-07 03:44:00,51.1,41.3,29.73,South,184,4.0,6.0,69,0.00,,---,0.00,0.00,VWS V14.01,2013-04-07 08:44:00,
2013-04-07 03:49:00,51.1,41.3,29.73,South,186,4.0,6.0,69,0.00,,---,0.00,0.00,VWS V14.01,2013-04-07 08:49:00,
2013-04-07 03:54:00,51.3,41.1,29.72,South,190,3.0,6.0,68,0.00,,---,0.00,0.00,VWS V14.01,2013-04-07 08:54:00,
2013-04-07 03:59:00,51.3,41.1,29.72,South,190,3.0,6.0,68,0.00,,---,0.00,0.00,VWS V14.01,2013-04-07 08:59:00,
2013-04-07 04:00:00,51.3,41.1,29.72,South,190,3.0,6.0,68,0.00,,---,0.00,0.00,VWS V14.01,2013-04-07 09:00:00,
2013-04-07 04:04:00,51.3,41.1,29.72,South,186,4.0,5.0,68,0.00,,---,0.00,0.00,VWS V14.01,2013-04-07 09:04:00,
2013-04-07 04:10:00,51.3,41.1,29.72,South,182,3.0,6.0,68,0.00,,---,0.00,0.00,VWS V14.01,2013-04-07 09:10:00,
2013-04-07 04:15:00,51.1,41.3,29.72,South,181,3.0,6.0,69,0.00,,---,0.00,0.00,VWS V14.01,2013-04-07 09:15:00,
2013-04-07 04:20:00,50.8,41.0,29.72,South,181,3.0,6.0,69,0.00,,---,0.00,0.00,VWS V14.01,2013-04-07 09:20:00,
2013-04-07 04:25:00,50.7,40.9,29.72,South,181,3.0,6.0,69,0.00,,---,0.00,0.00,VWS V14.01,2013-04-07 09:25:00,
2013-04-07 04:30:00,50.5,41.1,29.72,South,181,2.0,2.0,70,0.00,,---,0.00,0.00,VWS V14.01,2013-04-07 09:30:00,
2013-04-07 04:35:00,50.4,41.0,29.72,South,181,4.0,4.0,70,0.00,,---,0.00,0.00,VWS V14.01,2013-04-07 09:35:00,
2013-04-07 04:40:00,50.4,41.0,29.72,South,181,4.0,5.0,70,0.00,,---,0.00,0.00,VWS V14.01,2013-04-07 09:40:00,
2013-04-07 04:45:00,50.2,40.8,29.72,South,189,4.0,5.0,70,0.00,,---,0.00,0.00,VWS V14.01,2013-04-07 09:45:00,
2013-04-07 04:50:00,50.2,40.8,29.72,South,189,3.0,5.0,70,0.00,,---,0.00,0.00,VWS V14.01,2013-04-07 09:50:00,
2013-04-07 04:55:00,50.2,40.8,29.72,South,189,2.0,5.0,70,0.00,,---,0.00,0.00,VWS V14.01,2013-04-07 09:55:00,
2013-04-07 05:00:00,50.4,41.0,29.72,South,189,2.0,4.0,70,0.00,,---,0.00,0.00,VWS V14.01,2013-04-07 10:00:00,
2013-04-07 05:05:00,50.5,40.7,29.72,South,189,3.0,4.0,69,0.00,,---,0.00,0.00,VWS V14.01,2013-04-07 10:05:00,
2013-04-07 05:10:00,50.7,40.9,29.72,South,188,3.0,5.0,69,0.00,,---,0.00,0.00,VWS V14.01,2013-04-07 10:10:00,
2013-04-07 05:15:00,50.8,41.0,29.72,South,186,3.0,5.0,69,0.00,,---,0.00,0.00,VWS V14.01,2013-04-07 10:15:00,
2013-04-07 05:20:00,51.0,41.2,29.72,South,180,3.0,7.0,69,0.00,,---,0.00,0.00,VWS V14.01,2013-04-07 10:20:00,
2013-04-07 05:26:00,50.8,41.0,29.72,South,180,4.0,7.0,69,0.00,,---,0.00,0.00,VWS V14.01,2013-04-07 10:26:00,
2013-04-07 05:30:00,50.7,40.9,29.72,South,180,3.0,7.0,69,0.00,,---,0.00,0.00,VWS V14.01,2013-04-07 10:30:00,
2013-04-07 05:31:00,50.7,40.9,29.72,South,180,4.0,4.0,69,0.00,,---,0.00,0.00,VWS V14.01,2013-04-07 10:31:00,
2013-04-07 05:36:00,50.5,40.7,29.72,South,178,5.0,5.0,69,0.00,,---,0.00,0.00,VWS V14.01,2013-04-07 10:36:00,
2013-04-07 05:41:00,50.7,40.9,29.72,South,178,2.0,6.0,69,0.00,,---,0.00,0.00,VWS V14.01,2013-04-07 10:41:00,
2013-04-07 05:46:00,50.7,40.9,29.72,South,173,6.0,6.0,69,0.00,,---,0.00,0.00,VWS V14.01,2013-04-07 10:46:00,
2013-04-07 05:51:00,50.8,41.0,29.71,South,173,5.0,6.0,69,0.00,,---,0.00,0.00,VWS V14.01,2013-04-07 10:51:00,
2013-04-07 05:56:00,51.0,41.2,29.72,South,173,4.0,6.0,69,0.00,,---,0.00,0.00,VWS V14.01,2013-04-07 10:56:00,
2013-04-07 06:00:00,51.0,41.2,29.72,South,173,4.0,6.0,69,0.00,,---,0.00,0.00,VWS V14.01,2013-04-07 11:00:00,
2013-04-07 06:02:00,51.0,41.2,29.72,South,173,5.0,6.0,69,0.00,,---,0.00,0.00,VWS V14.01,2013-04-07 11:02:00,
2013-04-07 06:07:00,51.1,41.3,29.72,South,173,2.0,6.0,69,0.00,,---,0.00,0.00,VWS V14.01,2013-04-07 11:07:00,
2013-04-07 06:12:00,51.3,41.1,29.72,South,180,3.0,6.0,68,0.00,,---,0.00,0.00,VWS V14.01,2013-04-07 11:12:00,
2013-04-07 06:17:00,51.3,41.1,29.72,South,179,1.0,6.0,68,0.00,,---,0.00,0.00,VWS V14.01,2013-04-07 11:17:00,
2013-04-07 06:22:00,51.3,41.5,29.72,South,179,4.0,6.0,69,0.00,,---,0.00,0.00,VWS V14.01,2013-04-07 11:22:00,
2013-04-07 06:27:00,51.4,41.2,29.71,SSE,150,5.0,6.0,68,0.00,,---,0.00,0.00,VWS V14.01,2013-04-07 11:27:00,
2013-04-07 06:30:00,51.6,41.4,29.71,SSE,150,5.0,7.0,68,0.00,,---,0.00,0.00,VWS V14.01,2013-04-07 11:30:00,
2013-04-07 06:32:00,51.6,42.5,29.71,SSE,154,2.0,6.0,71,0.00,,---,0.00,0.00,VWS V14.01,2013-04-07 11:32:00,
2013-04-07 06:37:00,51.7,41.5,29.72,SSE,168,2.0,6.0,68,0.00,,---,0.00,0.00,VWS V14.01,2013-04-07 11:37:00,
2013-04-07 06:42:00,51.9,41.7,29.71,South,179,5.0,6.0,68,0.00,,---,0.00,0.00,VWS V14.01,2013-04-07 11:42:00,
2013-04-07 06:47:00,51.9,41.7,29.72,South,182,3.0,6.0,68,0.00,,---,0.00,0.00,VWS V14.01,2013-04-07 11:47:00,
2013-04-07 06:52:00,52.2,41.6,29.72,South,183,5.0,6.0,67,0.00,,---,0.00,0.00,VWS V14.01,2013-04-07 11:52:00,
2013-04-07 06:58:00,52.6,41.6,29.72,South,182,4.0,7.0,66,0.00,,---,0.00,0.00,VWS V14.01,2013-04-07 11:58:00,
2013-04-07 07:00:00,52.8,41.8,29.72,South,175,4.0,7.0,66,0.00,,---,0.00,0.00,VWS V14.01,2013-04-07 12:00:00,
2013-04-07 07:03:00,53.1,42.1,29.72,South,175,4.0,6.0,66,0.00,,---,0.00,0.00,VWS V14.01,2013-04-07 12:03:00,
2013-04-07 07:08:00,53.2,41.8,29.72,South,175,2.0,6.0,65,0.00,,---,0.00,0.00,VWS V14.01,2013-04-07 12:08:00,
2013-04-07 07:13:00,53.2,41.8,29.72,SSE,161,5.0,6.0,65,0.00,,---,0.00,0.00,VWS V14.01,2013-04-07 12:13:00,
2013-04-07 07:18:00,53.1,42.1,29.72,SSE,159,6.0,7.0,66,0.00,,---,0.00,0.00,VWS V14.01,2013-04-07 12:18:00,
2013-04-07 07:23:00,53.1,42.1,29.71,SSE,155,6.0,7.0,66,0.00,,---,0.00,0.00,VWS V14.01,2013-04-07 12:23:00,
2013-04-07 07:28:00,53.1,42.1,29.72,SSE,167,5.0,7.0,66,0.00,,---,0.00,5.00,VWS V14.01,2013-04-07 12:28:00,
2013-04-07 07:30:00,53.1,42.1,29.72,SSE,167,6.0,7.0,66,0.00,,---,0.00,5.00,VWS V14.01,2013-04-07 12:30:00,
2013-04-07 07:33:00,53.2,42.2,29.72,SSE,167,4.0,7.0,66,0.00,,---,0.00,7.00,VWS V14.01,2013-04-07 12:33:00,
2013-04-07 07:38:00,53.3,42.2,29.72,South,187,5.0,7.0,66,0.00,,---,0.00,9.00,VWS V14.01,2013-04-07 12:38:00,
2013-04-07 07:43:00,53.5,42.4,29.72,South,178,6.0,9.0,66,0.00,,---,0.00,11.00,VWS V14.01,2013-04-07 12:43:00,
2013-04-07 07:48:00,53.8,42.3,29.72,South,181,3.0,9.0,65,0.00,,---,0.00,12.00,VWS V14.01,2013-04-07 12:48:00,
2013-04-07 07:53:00,54.1,42.6,29.73,SSW,209,6.0,9.0,65,0.00,,---,0.00,12.00,VWS V14.01,2013-04-07 12:53:00,
2013-04-07 07:58:00,54.5,43.0,29.73,SSW,213,3.0,9.0,65,0.00,,---,0.00,16.00,VWS V14.01,2013-04-07 12:58:00,
2013-04-07 08:00:00,54.7,42.8,29.73,South,182,5.0,9.0,64,0.00,,---,0.00,18.00,VWS V14.01,2013-04-07 13:00:00,
2013-04-07 08:03:00,55.0,43.1,29.73,SSW,203,7.0,8.0,64,0.00,,---,0.00,21.00,VWS V14.01,2013-04-07 13:03:00,
2013-04-07 08:08:00,55.7,42.5,29.72,South,189,11.0,13.0,61,0.00,,---,0.00,23.00,VWS V14.01,2013-04-07 13:08:00,
2013-04-07 08:13:00,57.6,41.6,29.73,SSW,196,7.0,13.0,55,0.00,,---,0.00,25.00,VWS V14.01,2013-04-07 13:13:00,
2013-04-07 08:18:00,58.9,42.3,29.73,South,171,8.0,13.0,54,0.00,,---,0.00,21.00,VWS V14.01,2013-04-07 13:18:00,
2013-04-07 08:23:00,58.3,42.7,29.73,South,182,6.0,13.0,56,0.00,,---,0.00,23.00,VWS V14.01,2013-04-07 13:23:00,
2013-04-07 08:28:00,58.1,42.0,29.73,SSE,165,9.0,13.0,55,0.00,,---,0.00,21.00,VWS V14.01,2013-04-07 13:28:00,
2013-04-07 08:30:00,58.4,41.3,29.73,South,173,7.0,13.0,53,0.00,,---,0.00,21.00,VWS V14.01,2013-04-07 13:30:00,
2013-04-07 08:33:00,59.5,40.9,29.73,South,190,11.0,12.0,50,0.00,,---,0.00,21.00,VWS V14.01,2013-04-07 13:33:00,
2013-04-07 08:38:00,60.1,41.4,29.73,South,184,4.0,12.0,50,0.00,,---,0.00,28.00,VWS V14.01,2013-04-07 13:38:00,
2013-04-07 08:44:00,62.1,35.5,29.74,South,182,7.0,22.0,37,0.00,,---,0.00,35.00,VWS V14.01,2013-04-07 13:44:00,
2013-04-07 08:49:00,63.4,41.1,29.75,SE,139,10.0,22.0,44,0.00,,---,0.00,37.00,VWS V14.01,2013-04-07 13:49:00,
2013-04-07 08:54:00,65.8,33.5,29.75,East,100,4.0,22.0,30,0.00,,---,0.00,49.00,VWS V14.01,2013-04-07 13:54:00,
2013-04-07 08:59:00,67.8,36.1,29.74,ENE,73,5.0,22.0,31,0.00,,---,0.00,84.00,VWS V14.01,2013-04-07 13:59:00,
2013-04-07 09:00:00,67.9,35.3,29.74,ENE,78,2.0,22.0,30,0.00,,---,0.00,90.00,VWS V14.01,2013-04-07 14:00:00,
2013-04-07 09:04:00,68.6,34.2,29.74,East,100,5.0,7.0,28,0.00,,---,0.00,100.00,VWS V14.01,2013-04-07 14:04:00,
2013-04-07 09:09:00,68.4,36.6,29.74,SSE,157,7.0,8.0,31,0.00,,---,0.00,113.00,VWS V14.01,2013-04-07 14:09:00,
2013-04-07 09:14:00,68.6,35.1,29.74,South,187,3.0,9.0,29,0.00,,---,0.00,121.00,VWS V14.01,2013-04-07 14:14:00,
2013-04-07 09:19:00,68.1,36.3,29.73,SE,130,5.0,9.0,31,0.00,,---,0.00,107.00,VWS V14.01,2013-04-07 14:19:00,
2013-04-07 09:24:00,67.8,36.9,29.73,SE,141,4.0,9.0,32,0.00,,---,0.00,120.00,VWS V14.01,2013-04-07 14:24:00,
2013-04-07 09:29:00,67.6,35.1,29.73,SE,141,2.0,9.0,30,0.00,,---,0.00,104.00,VWS V14.01,2013-04-07 14:29:00,
2013-04-07 09:30:00,67.6,37.5,29.73,SE,141,1.0,9.0,33,0.00,,---,0.00,104.00,VWS V14.01,2013-04-07 14:30:00,
2013-04-07 09:34:00,67.3,38.0,29.73,SSE,168,6.0,6.0,34,0.00,,---,0.00,105.00,VWS V14.01,2013-04-07 14:34:00,
2013-04-07 09:39:00,67.8,35.3,29.72,SSE,163,6.0,7.0,30,0.00,,---,0.00,121.00,VWS V14.01,2013-04-07 14:39:00,
2013-04-07 09:44:00,68.6,33.3,29.72,SSE,163,5.0,7.0,27,0.00,,---,0.00,137.00,VWS V14.01,2013-04-07 14:44:00,
2013-04-07 09:49:00,69.3,34.8,29.72,South,187,4.0,7.0,28,0.00,,---,0.00,457.00,VWS V14.01,2013-04-07 14:49:00,
2013-04-07 09:54:00,69.9,34.4,29.72,South,187,0.0,7.0,27,0.00,,---,0.00,181.00,VWS V14.01,2013-04-07 14:54:00,
2013-04-07 09:59:00,70.3,35.7,29.71,South,187,2.0,7.0,28,0.00,,---,0.00,153.00,VWS V14.01,2013-04-07 14:59:00,
2013-04-07 10:00:00,70.3,35.7,29.71,South,187,3.0,7.0,28,0.00,,---,0.00,153.00,VWS V14.01,2013-04-07 15:00:00,
2013-04-07 10:05:00,70.3,36.6,29.71,SSW,212,0.0,5.0,29,0.00,,---,0.00,169.00,VWS V14.01,2013-04-07 15:05:00,
2013-04-07 10:10:00,70.6,35.9,29.71,SSW,212,0.0,5.0,28,0.00,,---,0.00,192.00,VWS V14.01,2013-04-07 15:10:00,
2013-04-07 10:15:00,70.8,38.7,29.71,ESE,108,4.0,5.0,31,0.00,,---,0.00,227.00,VWS V14.01,2013-04-07 15:15:00,
2013-04-07 10:20:00,70.8,39.5,29.71,ESE,107,1.0,5.0,32,0.00,,---,0.00,640.00,VWS V14.01,2013-04-07 15:20:00,
2013-04-07 10:25:00,71.8,37.0,29.71,ESE,105,2.0,5.0,28,0.00,,---,0.00,584.00,VWS V14.01,2013-04-07 15:25:00,
2013-04-07 10:30:00,72.3,37.4,29.71,ESE,104,5.0,5.0,28,0.00,,---,0.00,587.00,VWS V14.01,2013-04-07 15:30:00,
2013-04-07 10:31:00,72.5,37.6,29.70,East,92,6.0,7.0,28,0.00,,---,0.00,592.00,VWS V14.01,2013-04-07 15:31:00,
2013-04-07 10:36:00,72.5,35.7,29.71,East,101,5.0,7.0,26,0.00,,---,0.00,606.00,VWS V14.01,2013-04-07 15:36:00,
2013-04-07 10:41:00,72.3,35.5,29.70,ESE,123,8.0,16.0,26,0.00,,---,0.00,206.00,VWS V14.01,2013-04-07 15:41:00,
2013-04-07 10:46:00,71.3,38.3,29.71,SSE,161,10.0,16.0,30,0.00,,---,0.00,176.00,VWS V14.01,2013-04-07 15:46:00,
2013-04-07 10:51:00,69.8,40.2,29.71,SSW,205,10.0,19.0,34,0.00,,---,0.00,220.00,VWS V14.01,2013-04-07 15:51:00,
2013-04-07 10:56:00,69.6,41.5,29.70,SSE,153,14.0,19.0,36,0.00,,---,0.00,584.00,VWS V14.01,2013-04-07 15:56:00,
2013-04-07 11:00:00,69.6,42.2,29.70,SSE,155,13.0,19.0,37,0.00,,---,0.00,200.00,VWS V14.01,2013-04-07 16:00:00,
2013-04-07 11:01:00,69.6,39.2,29.70,ESE,119,9.0,13.0,33,0.00,,---,0.00,206.00,VWS V14.01,2013-04-07 16:01:00,
2013-04-07 11:07:00,69.4,39.8,29.70,SE,146,12.0,17.0,34,0.00,,---,0.00,267.00,VWS V14.01,2013-04-07 16:07:00,
2013-04-07 11:12:00,69.3,40.5,29.70,SE,135,10.0,17.0,35,0.00,,---,0.00,211.00,VWS V14.01,2013-04-07 16:12:00,
2013-04-07 11:17:00,68.8,40.1,29.70,SE,140,7.0,17.0,35,0.00,,---,0.00,193.00,VWS V14.01,2013-04-07 16:17:00,
2013-04-07 11:22:00,68.6,39.1,29.70,ESE,117,7.0,17.0,34,0.00,,---,0.00,260.00,VWS V14.01,2013-04-07 16:22:00,
2013-04-07 11:27:00,68.9,38.6,29.70,ESE,120,7.0,17.0,33,0.00,,---,0.00,408.00,VWS V14.01,2013-04-07 16:27:00,
2013-04-07 11:30:00,69.4,39.8,29.70,East,84,6.0,17.0,34,0.00,,---,0.00,863.00,VWS V14.01,2013-04-07 16:30:00,
2013-04-07 11:32:00,69.8,39.4,29.70,ESE,104,12.0,18.0,33,0.00,,---,0.00,900.00,VWS V14.01,2013-04-07 16:32:00,
2013-04-07 11:37:00,70.1,41.2,29.69,East,94,8.0,18.0,35,0.00,,---,0.00,786.00,VWS V14.01,2013-04-07 16:37:00,
2013-04-07 11:42:00,70.6,41.7,29.69,ESE,105,9.0,18.0,35,0.00,,---,0.00,376.00,VWS V14.01,2013-04-07 16:42:00,
2013-04-07 11:47:00,70.8,41.1,29.69,SSW,205,7.0,18.0,34,0.00,,---,0.00,798.00,VWS V14.01,2013-04-07 16:47:00,
2013-04-07 11:52:00,70.9,41.9,29.69,ENE,70,5.0,18.0,35,0.00,,---,0.00,721.00,VWS V14.01,2013-04-07 16:52:00,
2013-04-07 11:57:00,71.1,42.1,29.69,SE,136,11.0,18.0,35,0.00,,---,0.00,812.00,VWS V14.01,2013-04-07 16:57:00,
2013-04-07 12:00:00,71.3,42.3,29.68,East,96,19.0,19.0,35,0.00,,---,0.00,255.00,VWS V14.01,2013-04-07 17:00:00,
2013-04-07 12:02:00,71.1,39.8,29.68,SE,129,15.0,18.0,32,0.00,,---,0.00,285.00,VWS V14.01,2013-04-07 17:02:00,
2013-04-07 12:07:00,70.9,39.6,29.69,SE,128,15.0,19.0,32,0.00,,---,0.00,397.00,VWS V14.01,2013-04-07 17:07:00,
2013-04-07 12:12:00,70.8,41.8,29.69,SE,136,13.0,20.0,35,0.00,,---,0.00,752.00,VWS V14.01,2013-04-07 17:12:00,
2013-04-07 12:17:00,71.3,43.7,29.68,ESE,123,11.0,20.0,37,0.00,,---,0.00,670.00,VWS V14.01,2013-04-07 17:17:00,
2013-04-07 12:22:00,70.9,44.7,29.68,SE,139,12.0,20.0,39,0.00,,---,0.00,411.00,VWS V14.01,2013-04-07 17:22:00,
2013-04-07 12:28:00,70.9,42.6,29.68,SE,136,17.0,24.0,36,0.00,,---,0.00,543.00,VWS V14.01,2013-04-07 17:28:00,
2013-04-07 12:30:00,70.9,42.6,29.68,SE,146,17.0,24.0,36,0.00,,---,0.00,543.00,VWS V14.01,2013-04-07 17:30:00,
2013-04-07 12:33:00,71.3,43.7,29.68,South,180,11.0,17.0,37,0.00,,---,0.00,541.00,VWS V14.01,2013-04-07 17:33:00,
2013-04-07 12:38:00,72.0,43.6,29.68,SSE,157,18.0,24.0,36,0.00,,---,0.00,374.00,VWS V14.01,2013-04-07 17:38:00,
2013-04-07 12:43:00,71.1,43.5,29.68,SE,134,16.0,32.0,37,0.00,,---,0.00,385.00,VWS V14.01,2013-04-07 17:43:00,
2013-04-07 12:48:00,70.8,45.3,29.67,SSE,163,24.0,32.0,40,0.00,,---,0.00,445.00,VWS V14.01,2013-04-07 17:48:00,
2013-04-07 12:53:00,70.6,45.8,29.67,South,171,6.0,32.0,41,0.00,,---,0.00,733.00,VWS V14.01,2013-04-07 17:53:00,
2013-04-07 12:58:00,70.8,46.6,29.67,SSE,154,15.0,32.0,42,0.00,,---,0.00,508.00,VWS V14.01,2013-04-07 17:58:00,
2013-04-07 13:00:00,71.1,46.2,29.67,SE,132,17.0,32.0,41,0.00,,---,0.00,951.00,VWS V14.01,2013-04-07 18:00:00,
2013-04-07 13:03:00,71.5,44.6,29.67,SE,133,25.0,29.0,38,0.00,,---,0.00,928.00,VWS V14.01,2013-04-07 18:03:00,
2013-04-07 13:08:00,71.6,45.4,29.67,South,178,14.0,29.0,39,0.00,,---,0.00,930.00,VWS V14.01,2013-04-07 18:08:00,
2013-04-07 13:13:00,71.8,44.8,29.66,SW,215,7.0,29.0,38,0.00,,---,0.00,872.00,VWS V14.01,2013-04-07 18:13:00,
2013-04-07 13:18:00,71.3,47.0,29.66,SSE,154,20.0,29.0,42,0.00,,---,0.00,874.00,VWS V14.01,2013-04-07 18:18:00,
2013-04-07 13:23:00,71.1,45.6,29.65,South,175,14.0,29.0,40,0.00,,---,0.00,842.00,VWS V14.01,2013-04-07 18:23:00,
2013-04-07 13:28:00,70.9,47.3,29.65,SSE,159,11.0,29.0,43,0.00,,---,0.00,777.00,VWS V14.01,2013-04-07 18:28:00,
2013-04-07 13:30:00,71.1,46.9,29.65,SE,140,11.0,29.0,42,0.00,,---,0.00,777.00,VWS V14.01,2013-04-07 18:30:00,
2013-04-07 13:33:00,71.5,47.8,29.65,SE,134,17.0,17.0,43,0.00,,---,0.00,629.00,VWS V14.01,2013-04-07 18:33:00,
2013-04-07 13:38:00,71.3,47.0,29.64,SE,139,9.0,20.0,42,0.00,,---,0.00,881.00,VWS V14.01,2013-04-07 18:38:00,
2013-04-07 13:43:00,72.7,45.7,29.64,SSE,167,13.0,20.0,38,0.00,,---,0.00,874.00,VWS V14.01,2013-04-07 18:43:00,
2013-04-07 13:48:00,72.7,44.2,29.63,SSE,154,18.0,27.0,36,0.00,,---,0.00,867.00,VWS V14.01,2013-04-07 18:48:00,
2013-04-07 13:53:00,73.2,43.9,29.63,SSE,155,12.0,27.0,35,0.00,,---,0.00,902.00,VWS V14.01,2013-04-07 18:53:00,
2013-04-07 13:58:00,72.8,45.0,29.63,SSW,194,10.0,27.0,37,0.00,,---,0.00,675.00,VWS V14.01,2013-04-07 18:58:00,
2013-04-07 14:00:00,72.7,45.0,29.63,SE,136,24.0,27.0,37,0.00,,---,0.00,675.00,VWS V14.01,2013-04-07 19:00:00,
2013-04-07 14:03:00,72.0,46.4,29.62,SSE,148,20.0,24.0,40,0.00,,---,0.00,153.00,VWS V14.01,2013-04-07 19:03:00,
2013-04-07 14:08:00,71.3,45.1,29.61,ESE,123,17.0,27.0,39,0.00,,---,0.00,135.00,VWS V14.01,2013-04-07 19:08:00,
2013-04-07 14:13:00,71.1,46.2,29.61,SE,124,18.0,27.0,41,0.00,,---,0.00,118.00,VWS V14.01,2013-04-07 19:13:00,
2013-04-07 14:19:00,71.6,47.9,29.60,ESE,110,20.0,27.0,43,0.00,,---,0.00,107.00,VWS V14.01,2013-04-07 19:19:00,
2013-04-07 14:24:00,72.0,47.0,29.59,SE,130,18.0,27.0,41,0.00,,---,0.00,105.00,VWS V14.01,2013-04-07 19:24:00,
2013-04-07 14:29:00,72.1,43.7,29.59,SSE,150,20.0,27.0,36,0.00,,---,0.00,118.00,VWS V14.01,2013-04-07 19:29:00,
2013-04-07 14:30:00,72.3,43.9,29.59,SSE,163,13.0,27.0,36,0.00,,---,0.00,118.00,VWS V14.01,2013-04-07 19:30:00,
2013-04-07 14:34:00,72.7,42.0,29.59,East,91,26.0,28.0,33,0.00,,---,0.00,109.00,VWS V14.01,2013-04-07 19:34:00,
2013-04-07 14:39:00,72.5,41.8,29.59,SSE,152,24.0,31.0,33,0.00,,---,0.00,132.00,VWS V14.01,2013-04-07 19:39:00,
2013-04-07 14:44:00,73.0,43.8,29.59,SE,139,14.0,31.0,35,0.00,,---,0.00,144.00,VWS V14.01,2013-04-07 19:44:00,
2013-04-07 14:49:00,73.3,44.8,29.59,South,174,13.0,31.0,36,0.00,,---,0.00,111.00,VWS V14.01,2013-04-07 19:49:00,
2013-04-07 14:54:00,73.9,46.0,29.58,SE,138,17.0,31.0,37,0.00,,---,0.00,128.00,VWS V14.01,2013-04-07 19:54:00,
2013-04-07 14:59:00,73.2,45.4,29.58,SSE,166,25.0,32.0,37,0.00,,---,0.00,193.00,VWS V14.01,2013-04-07 19:59:00,
2013-04-07 15:00:00,73.0,45.2,29.58,SSE,158,24.0,32.0,37,0.00,,---,0.00,193.00,VWS V14.01,2013-04-07 20:00:00,
2013-04-07 15:04:00,73.0,42.2,29.58,SE,126,23.0,31.0,33,0.00,,---,0.00,241.00,VWS V14.01,2013-04-07 20:04:00,
2013-04-07 15:09:00,73.2,42.4,29.57,East,100,18.0,31.0,33,0.00,,---,0.00,186.00,VWS V14.01,2013-04-07 20:09:00,
2013-04-07 15:14:00,73.9,43.8,29.57,SE,140,12.0,31.0,34,0.00,,---,0.00,135.00,VWS V14.01,2013-04-07 20:14:00,
2013-04-07 15:19:00,73.7,43.6,29.56,SE,125,19.0,31.0,34,0.00,,---,0.00,155.00,VWS V14.01,2013-04-07 20:19:00,
2013-04-07 15:25:00,74.0,43.9,29.56,SE,134,17.0,31.0,34,0.00,,---,0.00,169.00,VWS V14.01,2013-04-07 20:25:00,
2013-04-07 15:30:00,74.4,40.1,29.56,SE,126,24.0,31.0,29,0.00,,---,0.00,207.00,VWS V14.01,2013-04-07 20:30:00,
2013-04-07 15:35:00,74.7,41.2,29.56,SE,128,18.0,27.0,30,0.00,,---,0.00,221.00,VWS V14.01,2013-04-07 20:35:00,
2013-04-07 15:40:00,74.6,39.4,29.55,SE,142,12.0,27.0,28,0.00,,---,0.00,338.00,VWS V14.01,2013-04-07 20:40:00,
2013-04-07 15:45:00,75.4,38.2,29.55,SE,135,28.0,28.0,26,0.00,,---,0.00,318.00,VWS V14.01,2013-04-07 20:45:00,
2013-04-07 15:50:00,75.6,38.3,29.54,SE,138,21.0,28.0,26,0.00,,---,0.00,257.00,VWS V14.01,2013-04-07 20:50:00,
2013-04-07 15:55:00,74.9,38.7,29.54,SE,132,21.0,28.0,27,0.00,,---,0.00,236.00,VWS V14.01,2013-04-07 20:55:00,
2013-04-07 16:00:00,74.7,38.5,29.54,SE,138,17.0,22.0,27,0.00,,---,0.00,229.00,VWS V14.01,2013-04-07 21:00:00,
2013-04-07 16:05:00,74.9,38.7,29.54,SSE,164,15.0,24.0,27,0.00,,---,0.00,186.00,VWS V14.01,2013-04-07 21:05:00,
2013-04-07 16:10:00,74.4,38.3,29.53,SSE,147,15.0,30.0,27,0.00,,---,0.00,93.00,VWS V14.01,2013-04-07 21:10:00,
2013-04-07 16:15:00,74.0,40.6,29.53,SE,130,17.0,30.0,30,0.00,,---,0.00,63.00,VWS V14.01,2013-04-07 21:15:00,
2013-04-07 16:20:00,73.7,44.4,29.53,SSE,156,16.0,31.0,35,0.00,,---,0.00,77.00,VWS V14.01,2013-04-07 21:20:00,
2013-04-07 16:25:00,73.5,46.4,29.53,South,169,18.0,31.0,38,0.00,,---,0.00,70.00,VWS V14.01,2013-04-07 21:25:00,
2013-04-07 16:30:00,73.3,47.5,29.53,SSE,156,17.0,21.0,40,0.00,,---,0.00,132.00,VWS V14.01,2013-04-07 21:30:00,
2013-04-07 16:35:00,73.3,48.8,29.52,SSE,163,10.0,27.0,42,0.00,,---,0.00,264.00,VWS V14.01,2013-04-07 21:35:00,
2013-04-07 16:40:00,73.9,47.4,29.52,South,171,6.0,30.0,39,0.00,,---,0.00,246.00,VWS V14.01,2013-04-07 21:40:00,
2013-04-07 16:45:00,73.7,44.4,29.53,SSE,168,15.0,30.0,35,0.00,,---,0.00,241.00,VWS V14.01,2013-04-07 21:45:00,
2013-04-07 16:50:00,72.8,40.4,29.52,South,179,14.0,32.0,31,0.00,,---,0.00,172.00,VWS V14.01,2013-04-07 21:50:00,
2013-04-07 16:55:00,72.5,44.1,29.52,SSE,167,11.0,32.0,36,0.00,,---,0.00,160.00,VWS V14.01,2013-04-07 21:55:00,
2013-04-07 17:00:00,72.0,48.3,29.53,SSE,151,15.0,32.0,43,0.00,,---,0.00,97.00,VWS V14.01,2013-04-07 22:00:00,
2013-04-07 17:01:00,71.8,49.3,29.53,South,173,26.0,26.0,45,0.00,,---,0.00,90.00,VWS V14.01,2013-04-07 22:01:00,
2013-04-07 17:06:00,71.1,47.5,29.53,SSE,158,27.0,31.0,43,0.00,,---,0.00,67.00,VWS V14.01,2013-04-07 22:06:00,
2013-04-07 17:11:00,70.6,44.5,29.53,SSW,197,20.0,32.0,39,0.00,,---,0.00,90.00,VWS V14.01,2013-04-07 22:11:00,
2013-04-07 17:16:00,70.3,46.8,29.53,South,171,21.0,32.0,43,0.00,,---,0.00,86.00,VWS V14.01,2013-04-07 22:16:00,
2013-04-07 17:21:00,70.4,49.8,29.53,SSE,165,10.0,32.0,48,0.00,,---,0.00,262.00,VWS V14.01,2013-04-07 22:21:00,
2013-04-07 17:26:00,70.9,51.3,29.52,SSW,202,20.0,32.0,50,0.00,,---,0.00,455.00,VWS V14.01,2013-04-07 22:26:00,
2013-04-07 17:30:00,70.9,52.4,29.52,South,188,11.0,32.0,52,0.00,,---,0.00,223.00,VWS V14.01,2013-04-07 22:30:00,
2013-04-07 17:31:00,70.9,52.4,29.52,South,188,21.0,22.0,52,0.00,,---,0.00,213.00,VWS V14.01,2013-04-07 22:31:00,
2013-04-07 17:36:00,70.6,53.7,29.52,SSE,165,25.0,28.0,55,0.00,,---,0.00,246.00,VWS V14.01,2013-04-07 22:36:00,
2013-04-07 17:41:00,70.3,54.8,29.52,SSE,149,21.0,29.0,58,0.00,,---,0.00,446.00,VWS V14.01,2013-04-07 22:41:00,
2013-04-07 17:46:00,69.6,54.7,29.52,SSE,168,12.0,30.0,59,0.00,,---,0.00,139.00,VWS V14.01,2013-04-07 22:46:00,
2013-04-07 17:51:00,69.4,54.5,29.52,SSE,161,15.0,30.0,59,0.00,,---,0.00,74.00,VWS V14.01,2013-04-07 22:51:00,
2013-04-07 17:57:00,69.1,53.7,29.52,South,186,19.0,30.0,58,0.00,,---,0.00,65.00,VWS V14.01,2013-04-07 22:57:00,
2013-04-07 18:00:00,68.9,53.5,29.52,South,171,17.0,30.0,58,0.00,,---,0.00,88.00,VWS V14.01,2013-04-07 23:00:00,
2013-04-07 18:02:00,68.8,53.4,29.51,SSE,152,7.0,25.0,58,0.00,,---,0.00,113.00,VWS V14.01,2013-04-07 23:02:00,
2013-04-07 18:07:00,68.8,54.4,29.52,South,182,14.0,27.0,60,0.00,,---,0.00,202.00,VWS V14.01,2013-04-07 23:07:00,
2013-04-07 18:12:00,68.8,53.9,29.51,SSE,163,18.0,27.0,59,0.00,,---,0.00,227.00,VWS V14.01,2013-04-07 23:12:00,
2013-04-07 18:17:00,68.9,53.5,29.51,South,171,8.0,27.0,58,0.00,,---,0.00,262.00,VWS V14.01,2013-04-07 23:17:00,
2013-04-07 18:22:00,69.1,53.7,29.51,South,173,11.0,27.0,58,0.00,,---,0.00,320.00,VWS V14.01,2013-04-07 23:22:00,
2013-04-07 18:27:00,68.9,54.0,29.51,South,184,13.0,31.0,59,0.00,,---,0.00,262.00,VWS V14.01,2013-04-07 23:27:00,
2013-04-07 18:30:00,68.9,54.5,29.51,SW,232,9.0,31.0,60,0.00,,---,0.00,107.00,VWS V14.01,2013-04-07 23:30:00,
2013-04-07 18:32:00,68.8,54.4,29.51,South,170,18.0,20.0,60,0.00,,---,0.00,81.00,VWS V14.01,2013-04-07 23:32:00,
2013-04-07 18:37:00,68.3,54.8,29.51,SE,146,17.0,21.0,62,0.00,,---,0.00,53.00,VWS V14.01,2013-04-07 23:37:00,
2013-04-07 18:42:00,67.8,54.3,29.51,South,188,5.0,23.0,62,0.00,,---,0.00,28.00,VWS V14.01,2013-04-07 23:42:00,
2013-04-07 18:47:00,67.3,54.3,29.51,South,171,20.0,25.0,63,0.00,,---,0.00,14.00,VWS V14.01,2013-04-07 23:47:00,
2013-04-07 18:52:00,66.9,54.3,29.52,South,172,16.0,25.0,64,0.00,,---,0.00,12.00,VWS V14.01,2013-04-07 23:52:00,
2013-04-07 18:57:00,66.4,54.3,29.52,South,182,14.0,25.0,65,0.00,,---,0.00,12.00,VWS V14.01,2013-04-07 23:57:00,
2013-04-07 19:00:00,66.3,54.2,29.52,SE,140,21.0,25.0,65,0.00,,---,0.00,18.00,VWS V14.01,2013-04-08 00:00:00,
2013-04-07 19:02:00,66.1,54.4,29.52,SSE,166,13.0,20.0,66,0.00,,---,0.00,21.00,VWS V14.01,2013-04-08 00:02:00,
2013-04-07 19:07:00,66.0,54.7,29.53,SSE,154,12.0,21.0,67,0.00,,---,0.00,14.00,VWS V14.01,2013-04-08 00:07:00,
2013-04-07 19:12:00,65.8,55.0,29.53,South,172,12.0,23.0,68,0.00,,---,0.00,14.00,VWS V14.01,2013-04-08 00:12:00,
2013-04-07 19:17:00,65.5,55.1,29.53,South,170,14.0,23.0,69,0.00,,---,0.00,19.00,VWS V14.01,2013-04-08 00:17:00,
2013-04-07 19:22:00,65.3,55.3,29.53,SSW,213,11.0,23.0,70,0.00,,---,0.00,16.00,VWS V14.01,2013-04-08 00:22:00,
2013-04-07 19:28:00,65.2,55.2,29.53,SSE,153,10.0,23.0,70,0.00,,---,0.00,9.00,VWS V14.01,2013-04-08 00:28:00,
2013-04-07 19:30:00,65.2,55.6,29.53,South,190,10.0,23.0,71,0.00,,---,0.00,9.00,VWS V14.01,2013-04-08 00:30:00,
2013-04-07 19:33:00,65.0,55.4,29.53,SSW,211,4.0,13.0,71,0.00,,---,0.00,5.00,VWS V14.01,2013-04-08 00:33:00,
2013-04-07 19:38:00,64.8,55.6,29.53,SSE,168,9.0,19.0,72,0.00,,---,0.00,5.00,VWS V14.01,2013-04-08 00:38:00,
2013-04-07 19:43:00,64.7,55.9,29.52,SSE,161,14.0,19.0,73,0.00,,---,0.00,5.00,VWS V14.01,2013-04-08 00:43:00,
2013-04-07 19:48:00,64.5,55.7,29.52,South,182,19.0,19.0,73,0.00,,---,0.00,0.00,VWS V14.01,2013-04-08 00:48:00,
2013-04-07 19:53:00,64.2,55.8,29.52,South,179,16.0,19.0,74,0.00,,---,0.00,0.00,VWS V14.01,2013-04-08 00:53:00,
2013-04-07 19:58:00,64.0,55.9,29.52,SSW,193,8.0,19.0,75,0.00,,---,0.00,0.00,VWS V14.01,2013-04-08 00:58:00,
2013-04-07 20:00:00,64.0,55.9,29.53,South,188,8.0,19.0,75,0.00,,---,0.00,0.00,VWS V14.01,2013-04-08 01:00:00,
2013-04-07 20:03:00,64.0,55.9,29.53,South,185,6.0,15.0,75,0.00,,---,0.00,0.00,VWS V14.01,2013-04-08 01:03:00,
2013-04-07 20:08:00,64.0,55.9,29.53,South,180,3.0,15.0,75,0.00,,---,0.00,0.00,VWS V14.01,2013-04-08 01:08:00,
2013-04-07 20:13:00,64.0,55.9,29.53,South,182,9.0,16.0,75,0.00,,---,0.00,0.00,VWS V14.01,2013-04-08 01:13:00,
2013-04-07 20:19:00,63.9,56.2,29.54,SSW,201,9.0,16.0,76,0.00,,---,0.00,0.00,VWS V14.01,2013-04-08 01:19:00,
2013-04-07 20:24:00,63.9,56.2,29.54,SW,231,11.0,16.0,76,0.00,,---,0.00,0.00,VWS V14.01,2013-04-08 01:24:00,
2013-04-07 20:29:00,63.7,56.4,29.54,South,173,11.0,21.0,77,0.00,,---,0.00,0.00,VWS V14.01,2013-04-08 01:29:00,
2013-04-07 20:30:00,63.7,56.4,29.54,South,190,17.0,21.0,77,0.00,,---,0.00,0.00,VWS V14.01,2013-04-08 01:30:00,
2013-04-07 20:34:00,63.7,56.4,29.54,SSW,209,10.0,17.0,77,0.00,,---,0.00,0.00,VWS V14.01,2013-04-08 01:34:00,
2013-04-07 20:39:00,63.5,56.2,29.55,SSW,205,10.0,17.0,77,0.00,,---,0.00,0.00,VWS V14.01,2013-04-08 01:39:00,
2013-04-07 20:44:00,63.5,56.2,29.56,South,189,4.0,17.0,77,0.00,,---,0.00,0.00,VWS V14.01,2013-04-08 01:44:00,
2013-04-07 20:49:00,63.4,56.4,29.56,SW,224,4.0,17.0,78,0.00,,---,0.00,0.00,VWS V14.01,2013-04-08 01:49:00,
2013-04-07 20:54:00,63.2,56.2,29.53,South,175,5.0,17.0,78,0.00,,---,0.00,0.00,VWS V14.01,2013-04-08 01:54:00,
2013-04-07 21:00:00,63.2,56.2,29.54,SE,137,10.0,17.0,78,0.00,,---,0.00,0.00,VWS V14.01,2013-04-08 02:00:00,
2013-04-07 21:05:00,63.1,56.1,29.55,SSW,213,16.0,16.0,78,0.00,,---,0.00,0.00,VWS V14.01,2013-04-08 02:05:00,
2013-04-07 21:10:00,62.9,56.3,29.55,SSW,197,10.0,17.0,79,0.00,,---,0.00,0.00,VWS V14.01,2013-04-08 02:10:00,
2013-04-07 21:15:00,62.7,56.5,29.55,South,184,10.0,17.0,80,0.00,,---,0.00,0.00,VWS V14.01,2013-04-08 02:15:00,
2013-04-07 21:20:00,62.6,56.3,29.55,SSW,196,6.0,17.0,80,0.00,,---,0.00,0.00,VWS V14.01,2013-04-08 02:20:00,
2013-04-07 21:25:00,62.6,56.3,29.55,South,173,14.0,17.0,80,0.00,,---,0.00,0.00,VWS V14.01,2013-04-08 02:25:00,
2013-04-07 21:30:00,62.4,56.2,29.56,South,180,4.0,4.0,80,0.00,,---,0.00,0.00,VWS V14.01,2013-04-08 02:30:00,
2013-04-07 21:35:00,62.6,56.3,29.56,SSW,192,13.0,16.0,80,0.00,,---,0.00,0.00,VWS V14.01,2013-04-08 02:35:00,
2013-04-07 21:40:00,62.6,56.3,29.56,South,176,13.0,16.0,80,0.00,,---,0.00,0.00,VWS V14.01,2013-04-08 02:40:00,
2013-04-07 21:45:00,62.6,56.7,29.56,South,178,8.0,17.0,81,0.00,,---,0.00,0.00,VWS V14.01,2013-04-08 02:45:00,
2013-04-07 21:50:00,62.6,56.7,29.56,South,176,6.0,17.0,81,0.00,,---,0.00,0.00,VWS V14.01,2013-04-08 02:50:00,
2013-04-07 21:55:00,62.6,56.7,29.57,SSW,207,4.0,17.0,81,0.00,,---,0.00,0.00,VWS V14.01,2013-04-08 02:55:00,
2013-04-07 22:00:00,62.6,56.7,29.57,SSW,206,10.0,17.0,81,0.00,,---,0.00,0.00,VWS V14.01,2013-04-08 03:00:00,
2013-04-07 22:01:00,62.6,56.7,29.58,SSE,148,2.0,8.0,81,0.00,,---,0.00,0.00,VWS V14.01,2013-04-08 03:01:00,
2013-04-07 22:06:00,62.6,56.7,29.57,SSW,208,9.0,10.0,81,0.00,,---,0.00,0.00,VWS V14.01,2013-04-08 03:06:00,
2013-04-07 22:11:00,62.4,56.5,29.57,South,182,8.0,10.0,81,0.00,,---,0.00,0.00,VWS V14.01,2013-04-08 03:11:00,
2013-04-07 22:16:00,62.4,56.5,29.58,South,181,9.0,13.0,81,0.00,,---,0.00,0.00,VWS V14.01,2013-04-08 03:16:00,
2013-04-07 22:21:00,62.4,56.5,29.57,SW,219,5.0,13.0,81,0.00,,---,0.00,0.00,VWS V14.01,2013-04-08 03:21:00,
2013-04-07 22:26:00,62.4,56.8,29.58,SSW,194,10.0,16.0,82,0.00,,---,0.00,0.00,VWS V14.01,2013-04-08 03:26:00,
2013-04-07 22:30:00,62.3,56.7,29.57,South,185,14.0,16.0,82,0.00,,---,0.00,0.00,VWS V14.01,2013-04-08 03:30:00,
2013-04-07 22:31:00,62.3,56.7,29.57,SSW,200,9.0,16.0,82,0.00,,---,0.00,0.00,VWS V14.01,2013-04-08 03:31:00,
2013-04-07 22:36:00,62.1,56.5,29.57,SE,146,8.0,16.0,82,0.00,,---,0.00,0.00,VWS V14.01,2013-04-08 03:36:00,
2013-04-07 22:41:00,62.0,56.5,29.57,South,177,9.0,16.0,82,0.00,,---,0.00,0.00,VWS V14.01,2013-04-08 03:41:00,
2013-04-07 22:46:00,61.6,56.4,29.58,South,180,7.0,16.0,83,0.00,,---,0.00,0.00,VWS V14.01,2013-04-08 03:46:00,
2013-04-07 22:52:00,61.5,56.3,29.57,SSW,201,8.0,16.0,83,0.00,,---,0.00,0.00,VWS V14.01,2013-04-08 03:52:00,
2013-04-07 22:57:00,61.2,56.3,29.57,SSE,164,10.0,16.0,84,0.00,,---,0.00,0.00,VWS V14.01,2013-04-08 03:57:00,
2013-04-07 23:00:00,61.2,56.3,29.57,SSW,209,7.0,16.0,84,0.00,,---,0.00,0.00,VWS V14.01,2013-04-08 04:00:00,
2013-04-07 23:01:00,61.0,56.1,29.57,South,178,7.0,7.0,84,0.00,,---,0.00,0.00,VWS V14.01,2013-04-08 04:01:00,
2013-04-07 23:06:00,60.9,56.4,29.57,SW,215,4.0,14.0,85,0.00,,---,0.00,0.00,VWS V14.01,2013-04-08 04:06:00,
2013-04-07 23:11:00,60.7,56.2,29.57,SSW,209,6.0,14.0,85,0.00,,---,0.00,0.00,VWS V14.01,2013-04-08 04:11:00,
2013-04-07 23:16:00,60.7,56.2,29.57,SSW,198,10.0,14.0,85,0.00,,---,0.00,0.00,VWS V14.01,2013-04-08 04:16:00,
2013-04-07 23:21:00,60.5,56.0,29.57,South,173,9.0,14.0,85,0.00,,---,0.00,0.00,VWS V14.01,2013-04-08 04:21:00,
2013-04-07 23:26:00,60.4,56.2,29.57,SSW,204,3.0,14.0,86,0.00,,---,0.00,0.00,VWS V14.01,2013-04-08 04:26:00,
2013-04-07 23:30:00,60.4,56.2,29.57,SSW,208,3.0,14.0,86,0.00,,---,0.00,0.00,VWS V14.01,2013-04-08 04:30:00,
2013-04-07 23:31:00,60.4,56.2,29.57,South,182,2.0,7.0,86,0.00,,---,0.00,0.00,VWS V14.01,2013-04-08 04:31:00,
2013-04-07 23:37:00,60.2,56.0,29.57,SE,125,8.0,10.0,86,0.00,,---,0.00,0.00,VWS V14.01,2013-04-08 04:37:00,
2013-04-07 23:42:00,60.2,56.0,29.57,South,185,3.0,10.0,86,0.00,,---,0.00,0.00,VWS V14.01,2013-04-08 04:42:00,
2013-04-07 23:47:00,60.1,55.9,29.58,South,179,2.0,10.0,86,0.00,,---,0.00,0.00,VWS V14.01,2013-04-08 04:47:00,
2013-04-07 23:52:00,60.1,55.9,29.58,SSE,159,2.0,10.0,86,0.00,,---,0.00,0.00,VWS V14.01,2013-04-08 04:52:00,
2013-04-07 23:57:00,59.9,55.7,29.57,SSE,159,1.0,10.0,86,0.00,,---,0.00,0.00,VWS V14.01,2013-04-08 04:57:00,